Location: Eldred Sherwood Park Lake Dam
(42.9416°N, 93.5655°W)
Time: 08:38:47
(UTC+00:00)

Vanguard 2 Rocket - Pass Details

Date: 11 November 2024
Orbit: 554 x 3296 km, 32.9° (Epoch: 06 December)

Event Time Altitude Azimuth Distance (km) Brightness Sun altitude
Rises 11:13:57 0° 188° (S) 5,435 10.9 -19.9°
Reaches altitude 10° 11:18:40 10° 172° (S) 4,894 10.8 -19.1°
Maximum altitude 11:28:10 20° 132° (SE) 4,813 11.3 -17.3°
Drops below altitude 10° 11:39:46 10° 94° (E) 6,151 12.5 -15.2°
Sets 11:46:46 0° 81° (E) 7,279 12.9 -14.0°
